SCP
-0 -0 0 0 0 0 0 0 0 0 0 0 0 -0 -0 -0 -0 0 0 0 0 0 0 0 0 0 0 0 0 0 0 0 0 0 -0 -0 0 0 0 0 0 0 0
-0 -0 -0 0 0 0 0 0 0 0 0 0 0 0 -0 -0 -0 0 0 0 0 0 0 0 0 0 0 0 0 0 0 0 0 0 -0 -0 -0 0 0 0 0 0 0
-0 -0 -0 0 0 0 0 0 0 0 0 0 0 0 0 0 0 0 0 0 0 0 0 0 0 0 0 0 0 0 0 0 0 -0 -0 -0 -0 0 0 0 0 0 0
-0 -0 -0 -0 0 0 0 0 0 0 0 0 0 0 0 0 0 0 0 0 0 0 0 0 0 0 0 0 0 0 0 0 0 -0 -0 -0 -0 -0 0 0 0 0 0
-0 -0 -0 -0 0 0 0 0 0 0 0 0 0 0 0 0 0 0 0 0 0 0 0 0 0 0 0 0 0 0 0 0 0 -0 0 -0 -0 -0 0 0 0 0 0
0 0 0 -0 0 0 0 0 0 0 0 0 0 0 0 0 0 0 0 0 0 0 0 0 0 0 0 0 0 0 0 0 0 0 0 0 0 0 0 0 0 0 0
0 0 0 0 0 0 0 0 0 0 0 0 0 0 0 0 0 0 0 0 0 0 0 0 0 0 0 0 0 0 0 0 0 0 0 0 0 0 0 0 0 0 0
0 0 0 0 0 0 0 0 0 0 0 0 0 0 0 0 0 0 0 0 0 0 0 0 0 0 0 0 0 0 0 0 0 0 0 0 0 0 0 0 0 0 0
0 0 0 0 0 0 0 0 0 0 0 0 0 0 0 0 0 0 0 0 0 0 0 0 0 0 0 -0 0 0 0 0 0 0 0 0 0 0 0 0 0 0 0
0 0 0 0 0 0 0 0 0 0 0 0 0 0 0 0 0 0 0 0 0 0 0 0 0 0 -0 -0 0 0 0 0 0 0 0 0 0 0 0 0 0 0 0
0 0 0 0 0 0 0 0 0 0 0 0 0 0 0 0 0 0 0 0 0 0 0 0 0 0 0 0 0 0 0 0 0 0 0 0 0 0 0 0 0 0 0
-0 -0 0 0 0 0 0 0 0 0 0 0 0 0 0 0 0 0 0 0 0 0 0 0 0 0 0 0 0 0 0 0 0 0 0 0 0 0 0 0 0 0 0
0 0 0 0 0 0 0 0 0 0 0 0 0 0 0 0 0 0 0 0 0 0 0 0 -0 -0 0 0 0 0 0 0 0 0 0 0 0 0 0 0 0 0 0
0 0 0 0 0 0 0 0 0 0 0 0 0 0 0 0 0 0 0 0 0 0 0 0 -0 -0 0 0 0 0 0 0 0 0 0 0 0 0 0 0 0 0 0
0 0 0 0 0 0 0 0 0 0 0 0 0 0 0 0 0 0 0 0 0 0 0 0 0 0 0 0 0 0 0 0 0 0 0 0 0 0 0 0 0 0 0
0 0 0 0 0 0 0 0 0 0 0 0 0 0 0 0 0 0 0 0 0 0 0 0 0 0 0 0 0 0 0 0 0 0 0 0 0 0 0 0 0 0 0
0 0 0 0 0 0 0 0 0 0 0 0 0 0 0 0 0 0 0 0 0 0 0 0 0 0 0 0 0 0 0 0 0 0 0 0 0 0 0 0 0 0 0
0 0 0 0 0 0 0 0 0 0 0 0 0 0 0 0 0 0 0 0 0 0 0 0 0 0 0 0 0 0 0 0 0 0 0 0 0 0 0 0 0 0 0
-0 -0 0 0 0 0 0 0 0 0 0 0 0 0 0 0 0 0 0 0 0 0 0 0 0 0 0 0 0 0 0 0 0 0 0 0 0 0 0 0 0 0 0
0 0 -0 0 0 0 0 0 -0 -0 0 0 0 0 0 0 0 0 0 0 0 0 0 0 0 0 0 0 0 0 0 0 0 0 0 0 0 0 0 0 0 0 0
0 0 -0 0 0 0 0 0 0 -0 0 0 0 0 0 0 0 0 0 0 0 0 0 0 0 0 0 0 0 0 0 0 0 0 0 0 0 0 0 0 0 0 0
0 0 -0 0 0 0 0 0 0 0 0 0 0 0 0 0 0 0 0 0 0 0 0 0 0 0 0 0 0 0 0 0 0 0 0 0 0 0 0 0 0 0 0
0 0 -0 0 0 0 0 0 0 0 0 0 0 0 0 0 0 0 0 0 0 0 0 0 0 0 0 0 0 0 0 0 0 0 0 0 0 0 0 0 0 0 0
-0 -0 0 0 0 0 0 0 0 0 0 0 0 0 0 0 0 0 0 0 0 0 0 0 0 0 0 0 0 0 0 0 0 0 0 0 0 0 0 0 0 0 0
-0 -0 0 0 0 0 0 0 0 0 0 0 0 0 0 0 0 0 0 0 0 0 0 0 0 0 0 0 0 0 0 0 0 0 0 0 0 0 0 0 0 0 0
-0 0 0 0 0 0 0 0 0 0 0 0 0 0 0 0 0 0 0 0 0 0 0 0 0 0 0 0 0 0 0 0 0 0 0 0 0 0 0 0 0 0 0
Wind_Speed
3 1 1 1 2 2 3 3 3 3 3 2 2 2 1 1 1 1 2 2 2 3 3 2 2 2 2 2 1 1 2 2 1 2 2 2 2 1 1 0 1 1 2
2 1 0 1 2 3 3 3 3 3 2 2 2 2 2 1 1 2 2 2 2 2 2 2 2 2 2 2 2 2 1 1 1 2 1 1 2 2 1 0 0 0 1
2 1 1 1 1 2 3 3 3 3 3 3 3 3 3 2 1 2 2 1 1 2 2 2 2 2 2 2 2 2 3 2 1 1 2 2 2 2 2 1 0 0 0
1 1 2 2 2 2 2 3 3 3 3 3 3 3 3 2 1 1 1 1 1 2 2 2 2 2 2 2 1 1 2 3 1 0 1 1 2 2 2 2 1 1 1
1 1 2 2 1 2 2 2 3 3 3 3 3 3 2 2 1 2 2 1 1 1 1 1 2 2 2 1 1 1 2 2 2 2 1 1 0 1 2 3 3 2 2
1 1 0 1 1 1 2 2 3 3 3 3 3 3 3 3 3 2 1 1 0 1 1 1 1 1 1 1 1 1 2 1 2 2 2 2 2 2 2 3 3 3 3
0 1 0 1 1 1 2 2 3 3 3 3 3 3 3 3 4 3 2 1 0 0 0 1 1 1 1 1 1 1 1 2 2 2 1 1 2 2 2 2 2 3 3
1 1 2 2 2 2 2 3 3 3 3 3 2 2 3 2 2 3 2 2 1 1 1 1 1 1 1 1 1 1 1 1 2 1 1 1 1 2 2 2 2 2 3
1 1 1 2 2 2 2 3 3 3 3 3 2 2 3 2 2 2 2 1 1 1 1 1 1 1 1 1 1 1 1 1 1 2 2 2 2 2 2 2 2 2 3
2 1 1 1 2 2 2 2 3 3 3 3 3 2 2 3 3 2 2 2 2 1 1 1 1 2 2 2 2 1 2 2 2 2 2 2 2 2 2 2 2 2 3
2 2 1 1 0 0 1 1 1 1 2 3 3 2 2 2 2 2 3 3 2 2 2 2 2 2 2 2 2 2 2 2 2 2 3 3 2 2 2 2 2 2 2
2 2 1 1 1 0 0 1 1 1 2 2 2 2 2 2 2 2 3 3 3 2 3 2 2 2 2 3 3 3 3 3 3 3 3 3 2 2 2 2 3 3 3
1 2 1 1 1 1 1 1 1 1 1 1 2 2 2 3 3 3 3 3 3 2 2 2 3 3 3 3 3 3 3 4 4 4 4 4 4 4 3 3 3 3 3
2 2 2 2 2 1 1 1 1 1 1 1 2 2 2 3 3 3 2 3 3 3 3 3 3 3 3 4 4 3 3 3 4 4 5 5 5 5 5 4 4 3 3
3 3 3 2 2 2 2 2 2 2 1 1 2 3 2 2 2 2 2 2 2 3 3 3 3 3 3 4 4 4 4 4 4 4 4 5 6 7 6 4 4 4 3
4 4 3 3 3 3 3 2 2 2 2 2 2 2 2 1 2 2 2 2 2 2 2 3 3 3 3 5 6 4 3 4 4 4 4 5 5 7 9 9 8 6 5
4 4 4 4 4 4 3 3 3 2 2 2 2 2 2 2 2 2 2 2 2 2 2 3 3 4 5 7 7 7 3 3 4 4 4 4 4 6 5 7 9 8 10
4 4 4 4 4 3 3 3 2 2 2 2 2 2 2 2 2 1 2 2 2 2 3 3 3 4 5 7 7 7 4 3 4 5 5 5 5 5 5 4 4 5 5
4 4 4 3 2 2 2 2 2 2 2 3 3 3 3 3 3 3 3 3 2 3 3 3 3 4 5 6 7 6 2 3 4 5 5 5 5 7 7 4 4 5 5
3 2 2 1 1 2 1 1 2 2 3 4 3 3 3 3 4 4 3 2 2 3 3 3 3 4 4 6 7 5 2 3 4 3 4 7 7 8 8 5 4 5 5
3 2 2 1 2 2 0 1 2 3 4 3 3 2 3 3 4 3 3 3 3 3 3 4 3 4 5 6 7 6 2 3 3 3 3 4 8 9 9 7 5 7 6
3 2 2 2 2 1 1 2 3 4 3 2 3 3 3 3 2 3 3 3 3 3 3 3 4 3 4 5 6 7 6 5 3 4 3 4 7 8 9 7 7 8 6
2 2 1 2 3 2 1 3 4 3 2 3 3 3 3 2 3 3 3 2 2 3 3 3 3 3 2 3 7 7 7 7 4 3 6 7 8 7 6 7 8 6 3
3 2 2 2 3 3 3 3 4 3 3 3 3 2 2 3 2 2 2 3 3 3 3 3 4 3 3 2 2 3 4 5 4 3 5 7 6 5 5 5 4 3 3
3 2 2 3 4 4 4 4 3 2 3 3 3 2 2 2 2 2 3 4 4 5 4 4 4 4 4 5 6 4 3 3 3 3 2 2 2 2 2 2 2 2 3
3 3 3 3 4 4 4 4 3 2 2 3 2 2 2 2 2 2 3 4 5 7 8 7 6 5 7 8 8 8 8 7 6 3 2 3 3 3 3 3 3 3 3
Wind_Direction
261 235 222 182 145 142 148 148 132 124 126 123 131 132 134 119 86 82 119 126 132 131 123 117 111 110 109 106 106 115 86 61 75 77 39 14 25 33 55 74 74 49 35
286 287 240 127 148 164 159 149 146 133 136 130 132 133 132 125 113 95 72 98 122 131 125 126 128 122 118 109 105 115 109 44 45 97 92 10 348 358 354 24 94 35 18
243 242 220 190 156 171 173 164 158 137 134 125 111 93 80 69 68 71 60 55 99 113 123 135 136 126 128 141 145 150 151 148 35 60 130 146 228 309 317 301 279 287 328
250 224 205 205 198 193 173 153 146 135 130 127 134 137 135 143 176 126 107 66 77 97 110 123 131 128 127 139 161 162 160 154 173 147 67 149 162 168 300 306 294 286 277
285 240 206 204 195 159 142 141 133 132 130 135 145 137 125 126 118 100 97 72 56 78 101 110 117 119 119 124 128 133 150 164 174 174 167 140 119 169 185 268 291 293 257
320 319 5 116 97 97 120 141 142 146 143 143 142 142 148 145 133 121 116 76 51 61 82 99 103 109 115 129 154 156 141 152 163 169 175 172 178 192 189 233 266 280 276
302 293 312 165 165 165 166 160 153 161 157 153 159 163 169 165 163 156 148 170 191 214 169 131 134 137 153 162 165 157 160 159 159 180 200 199 208 196 191 214 254 275 290
282 246 224 210 210 197 178 170 168 175 168 166 176 169 173 176 173 164 160 180 195 214 189 167 170 172 176 171 165 162 182 163 171 184 200 215 240 217 201 196 205 274 288
287 268 236 203 199 200 199 189 183 182 181 181 176 176 180 179 176 164 158 180 191 196 176 170 174 180 181 180 171 176 200 176 189 200 206 220 237 230 219 206 196 202 262
303 293 264 226 214 205 200 190 193 195 191 180 183 188 188 188 178 165 178 189 200 196 178 186 185 193 196 190 179 191 203 189 207 208 214 230 234 232 222 213 210 208 220
289 288 285 271 280 182 178 181 194 194 198 189 183 180 187 187 176 185 196 196 203 196 196 198 190 201 208 201 192 206 203 202 218 224 220 234 234 227 230 220 217 222 217
288 304 307 342 21 66 201 202 208 208 219 198 180 185 182 178 184 199 205 197 201 207 203 197 200 213 215 210 204 212 212 208 218 228 224 235 233 230 233 223 224 229 224
299 324 335 317 285 240 222 218 227 233 234 186 175 186 190 190 201 210 209 201 203 209 208 199 208 218 219 218 217 213 216 216 222 225 225 231 222 233 234 231 231 234 244
269 287 290 286 281 270 252 246 252 239 212 179 182 205 212 207 209 210 209 210 207 209 216 219 220 223 225 223 219 214 220 223 229 232 231 231 224 227 230 233 232 234 243
277 265 263 267 270 267 262 248 248 244 219 197 204 223 223 212 207 211 216 215 214 223 223 224 231 231 228 224 213 213 219 225 236 241 238 237 238 237 237 239 233 226 235
275 269 261 259 255 248 246 246 247 239 214 215 227 222 199 197 209 222 219 223 233 234 229 231 233 239 244 244 244 239 227 230 234 247 250 248 247 251 256 256 252 239 235
267 267 265 255 250 244 235 233 237 233 219 228 232 218 204 210 223 225 218 226 238 241 243 242 238 247 251 254 256 252 242 236 239 242 247 253 249 250 242 254 261 259 256
270 268 263 261 257 243 236 233 226 224 227 230 231 225 216 226 231 230 239 241 232 231 242 248 247 254 260 262 264 264 251 238 242 238 234 238 247 242 238 237 248 250 255
264 262 257 256 257 254 235 207 223 230 235 235 236 232 218 219 228 236 243 246 241 247 247 249 245 252 265 266 269 270 243 245 251 246 236 235 240 253 255 245 249 264 268
293 291 298 304 292 282 228 197 236 239 244 245 242 236 222 221 232 239 246 251 242 248 250 254 247 247 258 264 270 270 238 250 259 255 246 248 249 256 257 238 234 257 266
306 318 339 326 284 277 210 234 250 254 258 258 255 248 231 229 234 239 245 243 247 253 254 257 260 254 255 265 269 272 253 241 251 256 253 248 259 262 261 255 238 253 266
325 334 339 320 308 288 231 253 264 267 271 262 259 256 249 246 241 234 248 241 233 245 255 259 270 262 259 261 266 272 270 260 248 255 255 254 262 265 266 264 258 266 273
308 308 300 305 310 301 253 254 270 277 278 270 266 264 262 255 238 227 236 245 229 235 249 249 261 270 259 261 270 274 277 272 260 253 262 268 269 271 269 264 267 268 252
301 299 304 301 300 299 283 263 273 277 271 269 270 264 257 263 256 240 228 229 230 233 243 246 254 264 266 258 259 262 269 271 270 268 269 275 276 270 269 271 269 251 234
294 289 279 280 285 292 290 284 275 262 261 263 262 259 254 252 259 259 241 237 235 231 238 240 239 249 262 261 267 273 264 253 252 275 273 267 269 257 259 260 255 245 246
293 291 283 279 282 285 286 286 273 250 247 266 265 256 253 256 254 268 290 270 260 265 261 257 254 254 261 278 277 277 276 276 274 278 264 265 261 263 266 263 261 251 245